Lid_Strength_Index
1 6 7 8 12 14 15 12 9 9 8 8 6 7 8 7 9 11 2 1 1 1 -0 -0 -1 -1 -1 -1 -1 -1 -1 -1 -1 -1 -1 -1 -1 -1 -1 -1 -1 -1 -1 -1 -2 -1 -1 -1 -1
3 5 8 10 14 17 15 10 10 8 7 7 6 6 7 8 5 4 4 1 0 0 -0 -0 -1 -1 -1 -1 -1 -1 -1 -1 -1 -1 -1 -1 -1 -1 -1 -1 -1 -1 -1 -1 -2 -1 -1 -1 -1
3 5 10 13 15 16 14 10 9 8 6 7 6 5 6 7 4 4 1 1 0 0 -0 -0 -1 -1 -1 -1 -1 -1 -1 -1 -1 -1 -1 -1 -1 -1 -1 -1 -1 -1 -1 -1 -2 -1 -1 -1 -1
5 9 10 14 15 13 11 9 9 8 6 5 6 7 5 3 3 2 1 0 1 0 -0 -0 -1 -1 -1 -1 -1 -1 -1 -1 -1 -1 -1 -1 -1 -1 -1 -1 -1 -2 -2 -2 -2 -1 -1 -1 -1
6 9 14 15 14 12 10 9 8 8 6 6 6 8 7 3 2 1 1 1 1 0 -0 -0 -1 -1 -1 -1 -1 -1 -1 -1 -1 -1 -1 -1 -1 -1 -1 -1 -1 -1 -2 -2 -1 -1 -2 -1 -1
9 9 14 15 13 11 9 9 9 7 7 6 7 7 6 2 2 2 1 1 0 1 0 -0 -1 -1 -1 -1 -1 -1 -1 -1 -1 -1 -1 -1 -1 -1 -1 -1 -1 -1 -2 -2 -2 -2 -2 -2 -2
10 12 13 13 13 11 10 7 8 8 8 7 7 10 9 4 2 1 1 1 0 0 0 0 -0 -0 -1 -1 -1 -1 -1 -1 -1 -1 -1 -1 -1 -1 -1 -1 -1 -1 -2 -2 -2 -3 -3 -3 -3
9 11 13 12 13 13 9 7 7 8 8 5 5 9 12 10 3 2 1 1 1 1 0 0 0 -0 -0 -0 -1 -1 -1 -1 -1 -1 -1 -1 -1 -1 -1 -1 -1 -1 -2 -2 -2 -3 -3 -3 -3
8 12 13 13 13 12 9 8 6 5 7 6 6 6 6 5 7 4 2 2 2 1 1 0 0 0 -0 -0 -0 -1 -1 -1 -1 -1 -1 -0 -0 -0 -0 -1 -1 -1 -1 -2 -2 -3 -3 -3 -3
10 12 12 10 10 10 10 9 8 8 8 7 6 5 5 6 7 5 4 4 3 2 1 1 0 0 0 -0 -0 -0 -0 -0 -0 -0 -0 -0 -0 -0 -0 -1 -1 -1 -1 -2 -2 -2 -3 -2 0
10 11 9 8 9 9 9 10 7 9 10 9 9 7 7 7 8 7 9 4 3 2 1 1 0 0 0 0 -0 -0 -0 -0 -0 -0 -0 0 -0 -0 -0 0 -0 -0 -1 -0 -0 -0 0 0 1
11 8 8 8 9 9 9 9 9 8 8 8 8 8 8 8 9 8 8 7 7 2 2 1 0 0 0 0 0 -0 0 -0 0 -0 -0 -0 0 0 0 0 0 0 0 0 0 0 0 0 1
10 9 8 8 8 11 9 9 9 9 6 7 7 8 8 9 9 8 7 7 6 4 2 1 1 1 0 1 0 0 0 0 0 -0 -0 -0 0 0 0 0 0 -0 0 0 0 0 0 0 1
8 8 8 8 9 11 11 10 10 9 8 8 8 8 8 8 7 7 8 6 6 3 2 1 1 1 1 1 1 1 0 0 -0 -0 -0 -0 -0 0 0 1 1 1 0 0 0 1 1 1 2
8 10 9 8 8 9 9 11 11 8 6 7 7 9 8 8 6 5 5 6 4 5 2 1 1 2 3 2 1 1 1 0 0 -0 -0 -0 -0 0 0 1 1 1 1 1 1 1 1 2 2
10 11 12 9 8 8 8 12 8 6 6 7 6 7 6 6 5 5 4 3 2 5 3 2 1 2 4 2 1 0 1 1 0 0 -0 -0 -0 -0 1 1 1 1 2 2 2 2 2 1 1
12 14 13 11 9 9 10 12 7 6 7 7 7 7 6 6 6 5 5 3 3 3 4 4 3 2 1 1 0 1 1 1 2 1 1 0 -0 -0 1 1 0 1 1 2 2 3 4 2 1
14 14 13 12 10 10 11 10 9 7 7 8 7 7 6 6 6 5 4 5 4 3 4 4 5 5 5 6 4 1 2 1 1 1 1 1 1 1 1 1 1 1 2 2 3 2 3 2 1
10 12 13 11 9 10 10 10 9 9 9 9 9 8 8 7 6 5 3 3 2 2 2 2 2 3 3 2 2 2 2 2 1 1 1 1 1 1 1 1 1 1 1 2 2 2 2 2 2
10 12 13 11 9 11 11 11 10 9 9 8 8 8 7 7 5 4 3 3 3 3 3 2 2 2 2 1 2 1 2 1 1 0 0 0 0 1 1 1 1 1 1 1 2 2 3 2 2
11 12 12 12 10 10 11 12 11 8 8 7 7 7 7 6 6 5 4 4 4 3 3 2 2 2 2 1 1 1 1 1 2 2 1 1 0 0 0 1 1 1 1 1 2 2 2 3 3
13 10 9 10 12 15 11 16 12 10 9 8 9 8 7 6 6 5 5 5 4 4 3 2 2 2 2 1 2 3 3 4 2 2 1 1 0 0 0 0 0 1 1 1 1 1 2 2 3
11 8 9 10 13 14 13 15 13 11 11 9 9 8 8 7 7 6 6 5 5 5 3 3 4 3 2 3 2 3 3 2 2 2 2 2 1 0 0 0 0 1 1 1 1 1 2 2 2
7 10 11 12 14 17 14 14 14 12 10 10 9 8 7 8 7 7 6 6 6 5 5 5 5 4 3 2 3 3 3 3 3 3 3 2 1 1 0 0 0 1 1 1 1 1 1 2 2
10 13 17 17 18 18 12 14 14 10 9 9 9 8 8 8 8 7 8 7 7 6 6 5 5 5 4 3 2 2 2 3 3 2 3 3 2 2 1 1 1 1 1 1 1 1 1 1 2
11 12 16 20 21 18 12 16 13 9 8 8 7 8 8 9 9 8 7 7 8 7 6 6 5 5 4 3 3 3 2 3 2 2 2 2 2 1 1 1 1 1 1 1 1 1 1 1 1
11 13 11 15 14 17 15 13 10 9 9 8 9 9 9 9 9 9 8 8 9 7 6 5 4 4 4 4 4 4 4 4 3 3 2 1 1 1 1 1 1 1 1 1 1 1 2 2 3
10 9 15 14 20 21 16 14 14 11 11 9 10 10 10 9 9 9 9 8 7 7 6 5 5 5 5 6 6 6 6 4 3 3 3 3 2 1 1 1 1 1 1 1 2 2 2 2 3
12 12 12 13 15 20 21 16 10 11 11 11 10 10 11 11 10 9 9 8 7 6 7 7 7 7 7 7 7 7 7 6 6 4 3 3 2 1 1 1 1 1 1 2 4 4 3 4 3
10 11 13 17 17 16 16 16 8 9 9 10 11 10 10 10 10 9 9 7 7 7 7 7 7 8 8 8 8 8 8 8 8 7 6 5 4 2 2 1 1 1 1 2 3 3 3 4 4